Location: Newark
(7.1028°S, 35.3258°W)
Time: 14:08:38
(UTC+00:00)

Vanguard 3 - Pass Details

Date: 29 February 2020
Orbit: 508 x 3263 km, 33.4° (Epoch: 08 April)

Event Time Altitude Azimuth Distance (km) Brightness Sun altitude
Rises 00:39:13 0° 238° (WSW) 7,167 12.5 -57.7°
Reaches altitude 10° 00:46:10 10° 225° (SW) 5,911 11.8 -59.3°
Enters shadow 00:58:33 23° 180° (S) 4,105 10.7 -61.9°
